| time (UTC) | temp F | wind direction | speed MPH | gust MPH | rain 1hr in | rain 24hr in | rain mn in | humidity % | barometer mb |
| 20260903232037 | 69 | 83 | 0.0 | 0.0 | 0.00 | 0.38 | 0.38 | 86 | 1009.6 |
| 20260903231502 | 69 | 83 | 0.0 | 0.0 | 0.00 | 0.38 | 0.38 | 86 | 1009.5 |
| 20260903231029 | 69 | 83 | 0.0 | 0.0 | 0.00 | 0.38 | 0.38 | 86 | 1009.5 |
| 20260903225001 | 69 | 83 | 0.0 | 0.0 | 0.00 | 0.38 | 0.38 | 86 | 1009.7 |
| 20260903224502 | 69 | 83 | 0.0 | 0.0 | 0.00 | 0.38 | 0.38 | 86 | 1009.7 |
| 20260903224004 | 70 | 83 | 0.0 | 1.0 | 0.00 | 0.38 | 0.38 | 86 | 1010.0 |
| 20260903223007 | 70 | 83 | 1.0 | 2.0 | 0.00 | 0.38 | 0.38 | 86 | 1010.0 |
| 20260903222501 | 70 | 83 | 0.0 | 2.0 | 0.00 | 0.38 | 0.38 | 86 | 1009.9 |
| 20260903222003 | 70 | 109 | 0.0 | 0.0 | 0.00 | 0.38 | 0.38 | 86 | 1009.9 |
| 20260903221503 | 70 | 109 | 0.0 | 0.0 | 0.00 | 0.38 | 0.38 | 86 | 1010.0 |
| 20260903221001 | 70 | 109 | 0.0 | 2.0 | 0.00 | 0.38 | 0.38 | 86 | 1009.9 |
| 20260903220506 | 70 | 109 | 0.0 | 2.0 | 0.00 | 0.38 | 0.38 | 86 | 1009.9 |
| 20260903220007 | 70 | 109 | 0.0 | 0.0 | 0.00 | 0.38 | 0.38 | 86 | 1009.8 |
| 20260903215026 | 70 | 109 | 0.0 | 2.0 | 0.00 | 0.38 | 0.38 | 86 | 1009.6 |
| 20260903214000 | 70 | 109 | 0.0 | 0.0 | 0.00 | 0.38 | 0.38 | 86 | 1009.8 |
| 20260903213504 | 70 | 109 | 0.0 | 0.0 | 0.00 | 0.38 | 0.38 | 86 | 1009.8 |
| 20260903212504 | 70 | 109 | 0.0 | 0.0 | 0.00 | 0.38 | 0.38 | 87 | 1009.9 |
| 20260903212007 | 70 | 109 | 0.0 | 0.0 | 0.00 | 0.38 | 0.38 | 87 | 1009.9 |
| 20260903211516 | 70 | 109 | 0.0 | 0.0 | 0.00 | 0.38 | 0.38 | 87 | 1009.8 |
| 20260903211002 | 70 | 109 | 0.0 | 0.0 | 0.00 | 0.38 | 0.38 | 87 | 1009.9 |
| 20260903210517 | 70 | 109 | 0.0 | 0.0 | 0.00 | 0.38 | 0.38 | 87 | 1009.9 |
| 20260903210005 | 70 | 109 | 0.0 | 0.0 | 0.00 | 0.38 | 0.38 | 87 | 1009.8 |
| 20260903205007 | 70 | 109 | 0.0 | 0.0 | 0.00 | 0.38 | 0.38 | 87 | 1009.9 |
| 20260903204505 | 70 | 109 | 0.0 | 0.0 | 0.00 | 0.38 | 0.38 | 87 | 1010.0 |
| 20260903204002 | 70 | 109 | 0.0 | 2.0 | 0.00 | 0.38 | 0.38 | 87 | 1010.0 |
| 20260903203504 | 70 | 109 | 0.0 | 2.0 | 0.00 | 0.38 | 0.38 | 87 | 1010.1 |
| 20260903203023 | 70 | 19 | 0.0 | 2.0 | 0.00 | 0.38 | 0.38 | 87 | 1010.1 |
| 20260903202501 | 70 | 11 | 0.0 | 1.0 | 0.00 | 0.38 | 0.38 | 87 | 1010.1 |
| 20260903202022 | 70 | 9 | 0.0 | 0.0 | 0.00 | 0.38 | 0.38 | 87 | 1010.0 |
| 20260903201520 | 70 | 9 | 0.0 | 0.0 | 0.01 | 0.38 | 0.38 | 87 | 1010.0 |
| 20260903201010 | 70 | 9 | 0.0 | 0.0 | 0.01 | 0.38 | 0.38 | 87 | 1009.9 |
| 20260903200009 | 70 | 9 | 0.0 | 2.0 | 0.05 | 0.38 | 0.38 | 86 | 1010.1 |
| 20260903195502 | 70 | 9 | 0.0 | 2.0 | 0.05 | 0.38 | 0.38 | 86 | 1010.2 |
| 20260903195006 | 70 | 9 | 0.0 | 1.0 | 0.05 | 0.38 | 0.38 | 85 | 1010.4 |
| 20260903194502 | 70 | 9 | 0.0 | 0.0 | 0.05 | 0.38 | 0.38 | 85 | 1010.5 |
| 20260903194006 | 70 | 9 | 0.0 | 0.0 | 0.05 | 0.38 | 0.38 | 85 | 1010.6 |
| 20260903193501 | 70 | 9 | 0.0 | 0.0 | 0.05 | 0.38 | 0.38 | 85 | 1010.5 |
| 20260903192511 | 70 | 9 | 0.0 | 0.0 | 0.05 | 0.38 | 0.38 | 84 | 1010.6 |
| 20260903192041 | 71 | 9 | 0.0 | 4.0 | 0.05 | 0.38 | 0.38 | 84 | 1010.7 |
| 20260903191501 | 71 | 9 | 0.0 | 4.0 | 0.04 | 0.37 | 0.37 | 83 | 1010.9 |
| 20260903191009 | 71 | 113 | 1.0 | 5.0 | 0.04 | 0.37 | 0.37 | 83 | 1011.0 |
| 20260903190527 | 71 | 113 | 2.0 | 5.0 | 0.01 | 0.34 | 0.34 | 82 | 1010.9 |
| 20260903185525 | 72 | 350 | 2.0 | 3.0 | 0.00 | 0.33 | 0.33 | 81 | 1010.9 |
| 20260903185005 | 72 | 355 | 1.0 | 4.0 | 0.00 | 0.33 | 0.33 | 80 | 1010.9 |
| 20260903184537 | 73 | 355 | 2.0 | 5.0 | 0.00 | 0.33 | 0.33 | 79 | 1010.9 |
| 20260903184012 | 74 | 355 | 3.0 | 5.0 | 0.00 | 0.33 | 0.33 | 79 | 1011.0 |
| 20260903183503 | 74 | 355 | 2.0 | 6.0 | 0.00 | 0.33 | 0.33 | 78 | 1011.0 |
| 20260903183031 | 75 | 5 | 2.0 | 6.0 | 0.00 | 0.33 | 0.33 | 77 | 1011.0 |
| 20260903182010 | 77 | 355 | 3.0 | 6.0 | 0.00 | 0.33 | 0.33 | 76 | 1011.0 |
| 20260903181504 | 77 | 351 | 3.0 | 5.0 | 0.00 | 0.33 | 0.33 | 76 | 1011.0 |
| 20260903181009 | 77 | 355 | 2.0 | 5.0 | 0.00 | 0.33 | 0.33 | 75 | 1011.0 |
| 20260903180030 | 78 | 25 | 2.0 | 5.0 | 0.00 | 0.33 | 0.33 | 74 | 1011.0 |
| 20260903175535 | 79 | 350 | 1.0 | 5.0 | 0.00 | 0.33 | 0.33 | 74 | 1010.9 |
| 20260903174502 | 79 | 156 | 1.0 | 2.0 | 0.00 | 0.33 | 0.33 | 76 | 1011.0 |
| 20260903174003 | 79 | 156 | 1.0 | 2.0 | 0.00 | 0.33 | 0.33 | 78 | 1011.0 |
| 20260903173508 | 79 | 155 | 1.0 | 4.0 | 0.00 | 0.33 | 0.33 | 77 | 1011.1 |
| 20260903173022 | 79 | 202 | 1.0 | 3.0 | 0.00 | 0.33 | 0.33 | 77 | 1011.2 |
| 20260903172008 | 79 | 200 | 1.0 | 4.0 | 0.00 | 0.33 | 0.33 | 78 | 1011.1 |
| 20260903170504 | 79 | 212 | 1.0 | 5.0 | 0.00 | 0.33 | 0.33 | 78 | 1011.0 |
| 20260903164505 | 79 | 134 | 2.0 | 5.0 | 0.00 | 0.33 | 0.33 | 79 | 1010.8 |
| 20260903164020 | 79 | 119 | 2.0 | 5.0 | 0.00 | 0.33 | 0.33 | 79 | 1010.8 |
| 20260903163517 | 79 | 128 | 2.0 | 5.0 | 0.00 | 0.33 | 0.33 | 81 | 1010.7 |
| 20260903163005 | 79 | 129 | 1.0 | 5.0 | 0.00 | 0.33 | 0.33 | 82 | 1010.7 |
| 20260903162021 | 78 | 117 | 2.0 | 5.0 | 0.00 | 0.33 | 0.33 | 83 | 1010.8 |
| 20260903161001 | 77 | 213 | 2.0 | 5.0 | 0.00 | 0.33 | 0.33 | 88 | 1011.0 |
| 20260903160506 | 77 | 192 | 2.0 | 6.0 | 0.00 | 0.33 | 0.33 | 89 | 1011.0 |
| 20260903160007 | 77 | 186 | 2.0 | 7.0 | 0.00 | 0.33 | 0.33 | 89 | 1011.1 |
| 20260903155506 | 76 | 160 | 3.0 | 8.0 | 0.00 | 0.33 | 0.33 | 90 | 1011.0 |
| 20260903155005 | 75 | 152 | 3.0 | 8.0 | 0.00 | 0.33 | 0.33 | 90 | 1011.1 |
| 20260903154501 | 75 | 210 | 3.0 | 6.0 | 0.00 | 0.33 | 0.33 | 90 | 1011.3 |
| 20260903152502 | 75 | 221 | 2.0 | 7.0 | 0.00 | 0.33 | 0.33 | 91 | 1011.4 |
| 20260903151959 | 74 | 186 | 2.0 | 8.0 | 0.00 | 0.33 | 0.33 | 91 | 1011.5 |
| 20260903151507 | 74 | 142 | 2.0 | 10.0 | 0.00 | 0.33 | 0.33 | 91 | 1011.7 |
| 20260903151004 | 74 | 235 | 2.0 | 10.0 | 0.00 | 0.33 | 0.33 | 91 | 1011.8 |
| 20260903150525 | 74 | 203 | 2.0 | 6.0 | 0.00 | 0.33 | 0.33 | 91 | 1011.8 |
| 20260903150024 | 74 | 114 | 1.0 | 5.0 | 0.00 | 0.33 | 0.33 | 91 | 1011.8 |
| 20260903144005 | 72 | 200 | 0.0 | 5.0 | 0.01 | 0.33 | 0.33 | 91 | 1012.0 |
| 20260903143501 | 72 | 213 | 0.0 | 5.0 | 0.01 | 0.33 | 0.33 | 91 | 1012.1 |
| 20260903143007 | 71 | 178 | 1.0 | 5.0 | 0.01 | 0.33 | 0.33 | 91 | 1012.2 |
| 20260903142506 | 71 | 249 | 1.0 | 5.0 | 0.01 | 0.33 | 0.33 | 91 | 1012.2 |
| 20260903142004 | 71 | 180 | 1.0 | 5.0 | 0.01 | 0.33 | 0.33 | 91 | 1012.4 |
| 20260903141503 | 71 | 161 | 1.0 | 7.0 | 0.01 | 0.33 | 0.33 | 91 | 1012.7 |
| 20260903141004 | 70 | 165 | 1.0 | 9.0 | 0.01 | 0.33 | 0.33 | 91 | 1012.7 |
| 20260903140505 | 70 | 202 | 1.0 | 9.0 | 0.01 | 0.33 | 0.33 | 91 | 1012.7 |
| 20260903140003 | 70 | 175 | 1.0 | 6.0 | 0.01 | 0.33 | 0.33 | 91 | 1012.5 |
| 20260903135503 | 70 | 175 | 2.0 | 8.0 | 0.01 | 0.33 | 0.33 | 91 | 1012.4 |
| 20260903135004 | 69 | 128 | 1.0 | 10.0 | 0.01 | 0.33 | 0.33 | 91 | 1012.4 |
| 20260903134507 | 69 | 293 | 2.0 | 10.0 | 0.01 | 0.33 | 0.33 | 91 | 1012.6 |
| 20260903133501 | 69 | 142 | 2.0 | 7.0 | 0.00 | 0.32 | 0.32 | 91 | 1012.5 |
| 20260903133004 | 69 | 192 | 1.0 | 7.0 | 0.00 | 0.32 | 0.32 | 90 | 1012.6 |
| 20260903132458 | 69 | 207 | 2.0 | 8.0 | 0.00 | 0.32 | 0.32 | 90 | 1012.6 |
| 20260903132004 | 69 | 182 | 2.0 | 8.0 | 0.00 | 0.32 | 0.32 | 90 | 1012.4 |
| 20260903131459 | 69 | 129 | 2.0 | 10.0 | 0.00 | 0.32 | 0.32 | 90 | 1012.4 |
| 20260903131028 | 69 | 162 | 2.0 | 10.0 | 0.00 | 0.32 | 0.32 | 90 | 1012.4 |
| 20260903130500 | 69 | 148 | 4.0 | 14.0 | 0.00 | 0.32 | 0.32 | 90 | 1012.3 |
| 20260903125006 | 68 | 205 | 3.0 | 9.0 | 0.02 | 0.32 | 0.32 | 90 | 1012.5 |
| 20260903124501 | 68 | 156 | 3.0 | 12.0 | 0.02 | 0.32 | 0.32 | 90 | 1012.6 |
| 20260903124006 | 68 | 166 | 3.0 | 12.0 | 0.02 | 0.32 | 0.32 | 90 | 1012.7 |
| 20260903123000 | 68 | 192 | 5.0 | 14.0 | 0.02 | 0.32 | 0.32 | 90 | 1012.9 |
| 20260903122513 | 68 | 156 | 4.0 | 11.0 | 0.02 | 0.32 | 0.32 | 90 | 1012.9 |
| 20260903122028 | 68 | 143 | 4.0 | 10.0 | 0.02 | 0.32 | 0.32 | 90 | 1012.9 |
| 20260903121458 | 68 | 157 | 4.0 | 10.0 | 0.02 | 0.32 | 0.32 | 90 | 1013.0 |
| 20260903121008 | 67 | 138 | 4.0 | 13.0 | 0.02 | 0.32 | 0.32 | 90 | 1013.0 |
| 20260903120508 | 67 | 101 | 4.0 | 13.0 | 0.02 | 0.32 | 0.32 | 90 | 1013.2 |
| 20260903120005 | 67 | 132 | 5.0 | 11.0 | 0.01 | 0.31 | 0.31 | 90 | 1013.2 |
| 20260903115010 | 67 | 154 | 5.0 | 12.0 | 0.00 | 0.30 | 0.30 | 90 | 1013.1 |
| 20260903114028 | 67 | 132 | 3.0 | 13.0 | 0.00 | 0.30 | 0.30 | 90 | 1013.2 |
| 20260903113458 | 67 | 167 | 3.0 | 10.0 | 0.01 | 0.30 | 0.30 | 90 | 1013.3 |
| 20260903112458 | 66 | 115 | 3.0 | 9.0 | 0.05 | 0.30 | 0.30 | 90 | 1013.5 |
| 20260903112003 | 66 | 169 | 3.0 | 9.0 | 0.08 | 0.30 | 0.30 | 90 | 1013.5 |
| 20260903111520 | 66 | 105 | 4.0 | 14.0 | 0.11 | 0.30 | 0.30 | 89 | 1013.6 |
| 20260903111006 | 66 | 159 | 4.0 | 14.0 | 0.17 | 0.30 | 0.30 | 89 | 1013.6 |
| 20260903110532 | 66 | 102 | 4.0 | 14.0 | 0.27 | 0.30 | 0.30 | 89 | 1013.5 |
| 20260903110004 | 66 | 168 | 3.0 | 11.0 | 0.27 | 0.30 | 0.30 | 89 | 1013.5 |
| 20260903105458 | 66 | 157 | 3.0 | 11.0 | 0.28 | 0.30 | 0.30 | 89 | 1013.4 |
| 20260903104502 | 66 | 148 | 4.0 | 13.0 | 0.28 | 0.30 | 0.30 | 89 | 1013.4 |
| 20260903104021 | 66 | 115 | 5.0 | 13.0 | 0.28 | 0.30 | 0.30 | 89 | 1013.4 |
| 20260903103503 | 66 | 142 | 6.0 | 14.0 | 0.27 | 0.29 | 0.29 | 89 | 1013.3 |
| 20260903103007 | 66 | 146 | 6.0 | 14.0 | 0.26 | 0.28 | 0.28 | 88 | 1013.3 |
| 20260903102516 | 66 | 140 | 4.0 | 10.0 | 0.23 | 0.25 | 0.25 | 88 | 1013.4 |
| 20260903102010 | 66 | 140 | 3.0 | 9.0 | 0.20 | 0.22 | 0.22 | 88 | 1013.5 |
| 20260903101501 | 66 | 156 | 2.0 | 9.0 | 0.17 | 0.19 | 0.19 | 88 | 1013.5 |
| 20260903101009 | 66 | 130 | 1.0 | 6.0 | 0.08 | 0.10 | 0.10 | 88 | 1013.6 |
| 20260903100507 | 66 | 153 | 1.0 | 5.0 | 0.02 | 0.03 | 0.03 | 88 | 1013.6 |
| 20260903100011 | 66 | 151 | 1.0 | 6.0 | 0.01 | 0.02 | 0.02 | 88 | 1013.5 |
| 20260903095458 | 65 | 132 | 0.0 | 6.0 | 0.01 | 0.02 | 0.02 | 88 | 1013.5 |
| 20260903095000 | 65 | 137 | 1.0 | 5.0 | 0.01 | 0.02 | 0.02 | 88 | 1013.6 |
| 20260903094459 | 65 | 167 | 1.0 | 5.0 | 0.01 | 0.02 | 0.02 | 88 | 1013.5 |
| 20260903094002 | 65 | 124 | 1.0 | 5.0 | 0.01 | 0.02 | 0.02 | 88 | 1013.6 |
| 20260903093501 | 65 | 159 | 1.0 | 6.0 | 0.01 | 0.02 | 0.02 | 87 | 1013.7 |
| 20260903093022 | 65 | 153 | 1.0 | 6.0 | 0.01 | 0.02 | 0.02 | 87 | 1013.7 |
| 20260903092504 | 65 | 148 | 0.0 | 2.0 | 0.01 | 0.02 | 0.02 | 87 | 1013.6 |
| 20260903091959 | 65 | 172 | 1.0 | 6.0 | 0.01 | 0.02 | 0.02 | 87 | 1013.7 |
| 20260903091508 | 65 | 144 | 1.0 | 6.0 | 0.01 | 0.02 | 0.02 | 87 | 1013.6 |
| 20260903091024 | 65 | 96 | 0.0 | 4.0 | 0.01 | 0.01 | 0.01 | 86 | 1013.7 |
| 20260903090459 | 65 | 132 | 0.0 | 0.0 | 0.01 | 0.01 | 0.01 | 86 | 1014.0 |
| 20260903090030 | 65 | 132 | 0.0 | 0.0 | 0.01 | 0.01 | 0.01 | 86 | 1014.0 |
| 20260903085459 | 65 | 132 | 0.0 | 2.0 | 0.01 | 0.01 | 0.01 | 86 | 1014.0 |
| 20260903085012 | 65 | 132 | 0.0 | 2.0 | 0.01 | 0.01 | 0.01 | 86 | 1014.2 |
| 20260903084507 | 65 | 132 | 0.0 | 0.0 | 0.01 | 0.01 | 0.01 | 85 | 1014.3 |
| 20260903084027 | 65 | 132 | 0.0 | 0.0 | 0.01 | 0.01 | 0.01 | 85 | 1014.3 |
| 20260903083500 | 65 | 132 | 0.0 | 2.0 | 0.01 | 0.01 | 0.01 | 85 | 1014.3 |
| 20260903083002 | 65 | 132 | 0.0 | 2.0 | 0.01 | 0.01 | 0.01 | 85 | 1014.5 |
| 20260903082513 | 65 | 132 | 1.0 | 4.0 | 0.01 | 0.01 | 0.01 | 85 | 1014.5 |
| 20260903082004 | 65 | 167 | 1.0 | 3.0 | 0.01 | 0.01 | 0.01 | 84 | 1014.5 |
| 20260903081459 | 65 | 145 | 1.0 | 4.0 | 0.01 | 0.01 | 0.01 | 84 | 1014.5 |
| 20260903080009 | 65 | 126 | 1.0 | 4.0 | 0.00 | 0.00 | 0.00 | 84 | 1014.7 |
| 20260903075503 | 65 | 153 | 1.0 | 4.0 | 0.00 | 0.00 | 0.00 | 84 | 1014.7 |
| 20260903075009 | 65 | 159 | 1.0 | 8.0 | 0.00 | 0.00 | 0.00 | 84 | 1014.7 |
| 20260903074522 | 65 | 159 | 3.0 | 8.0 | 0.00 | 0.00 | 0.00 | 84 | 1014.8 |
| 20260903074004 | 65 | 164 | 3.0 | 8.0 | 0.00 | 0.00 | 0.00 | 84 | 1014.7 |
| 20260903073505 | 65 | 121 | 3.0 | 7.0 | 0.00 | 0.00 | 0.00 | 84 | 1014.7 |
| 20260903073009 | 65 | 146 | 3.0 | 7.0 | 0.00 | 0.00 | 0.00 | 84 | 1014.8 |
| 20260903072503 | 65 | 159 | 4.0 | 9.0 | 0.00 | 0.00 | 0.00 | 84 | 1014.9 |
| 20260903072006 | 65 | 142 | 5.0 | 9.0 | 0.00 | 0.00 | 0.00 | 84 | 1014.9 |
| 20260903071005 | 64 | 151 | 3.0 | 6.0 | 0.00 | 0.00 | 0.00 | 84 | 1015.2 |
| 20260903070458 | 64 | 146 | 4.0 | 7.0 | 0.00 | 0.00 | 0.00 | 83 | 1015.3 |
| 20260903070005 | 64 | 140 | 4.0 | 7.0 | 0.00 | 0.00 | 0.00 | 83 | 1015.3 |
| 20260903065515 | 64 | 152 | 3.0 | 7.0 | 0.00 | 0.00 | 0.00 | 83 | 1015.3 |
| 20260903065008 | 64 | 162 | 2.0 | 6.0 | 0.00 | 0.00 | 0.00 | 83 | 1015.3 |
| 20260903064024 | 64 | 162 | 2.0 | 5.0 | 0.00 | 0.00 | 0.00 | 83 | 1015.6 |
| 20260903063504 | 64 | 140 | 2.0 | 5.0 | 0.00 | 0.00 | 0.00 | 83 | 1015.7 |
| 20260903063029 | 64 | 142 | 2.0 | 5.0 | 0.00 | 0.00 | 0.00 | 82 | 1015.8 |
| 20260903062503 | 64 | 117 | 2.0 | 4.0 | 0.00 | 0.00 | 0.00 | 82 | 1015.9 |
| 20260903062004 | 64 | 138 | 1.0 | 6.0 | 0.00 | 0.00 | 0.00 | 82 | 1016.0 |
| 20260903061504 | 64 | 140 | 0.0 | 6.0 | 0.00 | 0.00 | 0.00 | 82 | 1016.1 |
| 20260903061005 | 64 | 149 | 1.0 | 5.0 | 0.00 | 0.00 | 0.00 | 82 | 1016.3 |
| 20260903060502 | 63 | 148 | 1.0 | 5.0 | 0.00 | 0.00 | 0.00 | 82 | 1016.3 |
| 20260903060007 | 63 | 148 | 1.0 | 5.0 | 0.00 | 0.00 | 0.00 | 82 | 1016.3 |
| 20260903055507 | 63 | 149 | 1.0 | 4.0 | 0.00 | 0.00 | 0.00 | 82 | 1016.5 |
| 20260903055030 | 63 | 149 | 2.0 | 6.0 | 0.00 | 0.00 | 0.00 | 82 | 1016.5 |
| 20260903054008 | 63 | 141 | 2.0 | 5.0 | 0.00 | 0.00 | 0.00 | 82 | 1016.5 |
| 20260903053501 | 63 | 140 | 1.0 | 5.0 | 0.00 | 0.00 | 0.00 | 82 | 1016.7 |
| 20260903053011 | 63 | 141 | 1.0 | 4.0 | 0.00 | 0.00 | 0.00 | 82 | 1016.8 |
| 20260903052502 | 63 | 141 | 2.0 | 5.0 | 0.00 | 0.00 | 0.00 | 82 | 1016.9 |
| 20260903051507 | 63 | 147 | 0.0 | 5.0 | 0.00 | 0.00 | 0.00 | 83 | 1017.0 |
| 20260903051004 | 63 | 147 | 1.0 | 5.0 | 0.00 | 0.00 | 0.00 | 83 | 1017.2 |
| 20260903050502 | 62 | 147 | 1.0 | 5.0 | 0.00 | 0.00 | 0.00 | 84 | 1017.2 |
| 20260903050024 | 62 | 148 | 2.0 | 5.0 | 0.00 | 0.00 | 0.00 | 84 | 1017.0 |
| 20260903045520 | 62 | 148 | 2.0 | 5.0 | 0.00 | 0.00 | 0.00 | 84 | 1016.9 |
| 20260903045009 | 62 | 130 | 2.0 | 5.0 | 0.00 | 0.00 | 0.00 | 84 | 1017.0 |
| 20260903044509 | 62 | 132 | 1.0 | 5.0 | 0.00 | 0.00 | 0.00 | 84 | 1016.9 |
| 20260903044005 | 62 | 143 | 0.0 | 5.0 | 0.00 | 0.00 | 0.00 | 84 | 1017.0 |
| 20260903043514 | 62 | 149 | 0.0 | 1.0 | 0.00 | 0.00 | 0.00 | 84 | 1017.1 |
| 20260903043007 | 62 | 150 | 0.0 | 1.0 | 0.00 | 0.00 | 0.00 | 85 | 1017.0 |
| 20260903042511 | 62 | 150 | 0.0 | 2.0 | 0.00 | 0.00 | 0.00 | 85 | 1017.0 |
| 20260903042002 | 62 | 150 | 0.0 | 2.0 | 0.00 | 0.00 | 0.00 | 85 | 1017.0 |
| 20260903041459 | 62 | 149 | 0.0 | 4.0 | 0.00 | 0.00 | 0.00 | 85 | 1017.1 |
| 20260903041000 | 62 | 149 | 1.0 | 4.0 | 0.00 | 0.00 | 0.00 | 85 | 1016.9 |
| 20260903040503 | 62 | 150 | 0.0 | 2.0 | 0.00 | 0.00 | 0.00 | 85 | 1016.9 |
| 20260903040009 | 62 | 150 | 0.0 | 5.0 | 0.00 | 0.00 | 0.00 | 85 | 1017.0 |
| 20260903035508 | 62 | 150 | 0.0 | 5.0 | 0.00 | 0.00 | 0.00 | 85 | 1017.0 |
| 20260903035003 | 62 | 167 | 0.0 | 0.0 | 0.00 | 0.00 | 0.00 | 85 | 1017.2 |
| 20260903034507 | 62 | 147 | 0.0 | 0.0 | 0.00 | 0.00 | 0.00 | 85 | 1017.4 |
| 20260903034023 | 63 | 147 | 0.0 | 0.0 | 0.00 | 0.00 | 0.00 | 85 | 1017.2 |
| 20260903033513 | 63 | 143 | 0.0 | 0.0 | 0.00 | 0.00 | 0.00 | 85 | 1017.0 |
| 20260903033032 | 63 | 140 | 0.0 | 0.0 | 0.00 | 0.00 | 0.00 | 85 | 1017.1 |
| 20260903032004 | 63 | 137 | 0.0 | 0.0 | 0.00 | 0.00 | 0.00 | 85 | 1017.4 |
| 20260903031006 | 63 | 119 | 0.0 | 0.0 | 0.00 | 0.00 | 0.00 | 84 | 1017.4 |
| 20260903030508 | 63 | 119 | 0.0 | 0.0 | 0.00 | 0.00 | 0.00 | 84 | 1017.5 |
| 20260903030009 | 63 | 119 | 0.0 | 0.0 | 0.00 | 0.00 | 0.00 | 84 | 1017.4 |
| 20260903025501 | 63 | 119 | 0.0 | 0.0 | 0.00 | 0.00 | 0.00 | 84 | 1017.7 |
| 20260903025015 | 63 | 119 | 0.0 | 0.0 | 0.00 | 0.00 | 0.00 | 84 | 1017.6 |
| 20260903024506 | 63 | 118 | 0.0 | 0.0 | 0.00 | 0.00 | 0.00 | 84 | 1017.7 |
| 20260903024007 | 63 | 118 | 0.0 | 0.0 | 0.00 | 0.00 | 0.00 | 84 | 1017.7 |
| 20260903023504 | 63 | 118 | 0.0 | 0.0 | 0.00 | 0.00 | 0.00 | 84 | 1017.7 |
| 20260903023006 | 63 | 118 | 0.0 | 0.0 | 0.00 | 0.00 | 0.00 | 83 | 1017.6 |
| 20260903022504 | 63 | 118 | 0.0 | 4.0 | 0.00 | 0.00 | 0.00 | 83 | 1017.5 |
| 20260903022011 | 63 | 118 | 1.0 | 4.0 | 0.00 | 0.00 | 0.00 | 83 | 1017.7 |
| 20260903021505 | 63 | 117 | 1.0 | 3.0 | 0.00 | 0.00 | 0.00 | 83 | 1017.7 |
| 20260903021005 | 63 | 134 | 0.0 | 2.0 | 0.00 | 0.00 | 0.00 | 83 | 1017.7 |
| 20260903020500 | 63 | 142 | 0.0 | 0.0 | 0.00 | 0.00 | 0.00 | 82 | 1017.7 |
| 20260903015503 | 63 | 129 | 0.0 | 0.0 | 0.00 | 0.00 | 0.00 | 82 | 1017.9 |
| 20260903015002 | 63 | 129 | 0.0 | 0.0 | 0.00 | 0.00 | 0.00 | 81 | 1017.9 |
| 20260903014515 | 63 | 130 | 0.0 | 0.0 | 0.00 | 0.00 | 0.00 | 81 | 1017.9 |
| 20260903014029 | 64 | 129 | 0.0 | 0.0 | 0.00 | 0.00 | 0.00 | 81 | 1017.9 |
| 20260903013521 | 64 | 130 | 0.0 | 0.0 | 0.00 | 0.00 | 0.00 | 81 | 1018.0 |
| 20260903013028 | 64 | 129 | 0.0 | 0.0 | 0.00 | 0.00 | 0.00 | 80 | 1017.8 |
| 20260903012505 | 64 | 129 | 0.0 | 0.0 | 0.00 | 0.00 | 0.00 | 80 | 1018.0 |
| 20260903011959 | 64 | 129 | 0.0 | 0.0 | 0.00 | 0.00 | 0.00 | 80 | 1018.1 |
| 20260903011523 | 65 | 129 | 0.0 | 0.0 | 0.00 | 0.00 | 0.00 | 80 | 1018.1 |
| 20260903011002 | 65 | 129 | 0.0 | 0.0 | 0.00 | 0.00 | 0.00 | 80 | 1018.3 |
| 20260903010459 | 65 | 129 | 0.0 | 0.0 | 0.00 | 0.00 | 0.00 | 80 | 1018.5 |
| 20260903010023 | 65 | 129 | 0.0 | 0.0 | 0.00 | 0.00 | 0.00 | 79 | 1018.5 |
| 20260903005531 | 65 | 129 | 0.0 | 0.0 | 0.00 | 0.00 | 0.00 | 79 | 1018.4 |
| 20260903005020 | 65 | 129 | 0.0 | 0.0 | 0.00 | 0.00 | 0.00 | 79 | 1018.4 |
| 20260903003518 | 66 | 129 | 0.0 | 0.0 | 0.00 | 0.00 | 0.00 | 78 | 1018.1 |
| 20260903003006 | 66 | 129 | 0.0 | 0.0 | 0.00 | 0.00 | 0.00 | 78 | 1018.2 |
| 20260903002505 | 66 | 129 | 0.0 | 0.0 | 0.00 | 0.00 | 0.00 | 78 | 1018.3 |
| 20260903002003 | 66 | 129 | 0.0 | 0.0 | 0.00 | 0.00 | 0.00 | 78 | 1018.4 |
| 20260903001026 | 66 | 129 | 0.0 | 0.0 | 0.00 | 0.00 | 0.00 | 77 | 1018.4 |
| 20260903000503 | 67 | 129 | 0.0 | 0.0 | 0.00 | 0.00 | 0.00 | 77 | 1018.5 |
| 20260903000029 | 67 | 129 | 0.0 | 2.0 | 0.00 | 0.00 | 0.00 | 77 | 1018.7 |
| 20260902235503 | 67 | 129 | 0.0 | 2.0 | 0.00 | 0.00 | 0.00 | 77 | 1018.6 |
| 20260902235006 | 67 | 129 | 1.0 | 5.0 | 0.00 | 0.00 | 0.00 | 77 | 1018.5 |
| 20260902234513 | 67 | 130 | 2.0 | 5.0 | 0.00 | 0.00 | 0.00 | 77 | 1018.4 |
| 20260902234000 | 67 | 122 | 1.0 | 5.0 | 0.00 | 0.00 | 0.00 | 76 | 1018.6 |
| 20260902233512 | 67 | 113 | 1.0 | 5.0 | 0.00 | 0.00 | 0.00 | 76 | 1018.6 |
| 20260902233022 | 68 | 92 | 1.0 | 5.0 | 0.00 | 0.00 | 0.00 | 76 | 1018.5 |
| 20260902232519 | 68 | 105 | 1.0 | 4.0 | 0.00 | 0.00 | 0.00 | 75 | 1018.7 |